Regional Weather Roundup
Issued by NWS San Diego, CA

Home | Current Version | Previous Version | Text Only | Print | Product List | Glossary On
Versions: 1 2 3 4 5 6 7 8 9 10 11 12 13 14 15 16 17 18 19 20 21 22 23 24 25 26 27 28 29 30 31 32 33 34 35 36 37 38 39 40 41 42 43 44 45 46 47 48 49 50
000
ASUS46 KSGX 241210
RWRSGX

SAN DIEGO HOURLY WEATHER ROUNDUP
NATIONAL WEATHER SERVICE SAN DIEGO CA
500 AM PDT THU APR 24 2014

NOTE: "FAIR" INDICATES FEW OR NO CLOUDS BELOW 12,000 FEET WITH NO
SIGNIFICANT WEATHER AND/OR OBSTRUCTIONS TO VISIBILITY.

CAZ042-043-060-061-PZZ750-775-241300-

GREATER SAN DIEGO AREA

CITY           SKY/WX    TMP DP  RH WIND       PRES   REMARKS
LINDBERGH FLD  PTCLDY    60  50  69 E5        29.95F
NATIONAL CITY    N/A     56  50  80 CALM      29.95F
CHULA VISTA      N/A     54  49  85 CALM      29.89S
IMPERIAL BEACH CLEAR     51  49  92 E7        29.95F
BROWN FIELD    CLEAR     50  46  86 E3        29.95S
MIRAMAR MCAS   PTCLDY    51  47  86 E7        29.94F
MONTGOMERY FLD CLEAR     53  48  83 E3        29.95S

$$

NORTH SAN DIEGO COUNTY

CITY           SKY/WX    TMP DP  RH WIND       PRES   REMARKS
CAMP PENDLETON CLEAR     45  41  86 CALM      29.95S
RED BEACH      FAIR      55  47  74 E6        29.94S
OCEANSIDE AP   CLEAR     50  46  86 NE5       29.94S
VISTA            N/A     51  47  88 CALM      29.92F
CARLSBAD       CLEAR     56  49  77 E3        29.93F
DEL MAR          N/A     55  52  89 CALM      29.95F
LA JOLLA SCRIP   N/A     56  53  89 E2        29.91F
FALLBROOK        N/A     53  53  99 CALM      29.95S
ESCONDIDO        N/A     54  49  83 CALM      29.96F
SAN MARCOS       N/A     54  49  83 E2        29.93S
R. PENASQUITOS   N/A     55  50  84 CALM      29.95F

$$

EAST SAN DIEGO COUNTY

CITY           SKY/WX    TMP DP  RH WIND       PRES   REMARKS
RAMONA         CLEAR     44  40  85 E3        29.95S
GILLESPIE FLD  FAIR      52  48  87 CALM      29.97S
LA MESA          N/A     56  50  82 CALM      29.89S
JAMUL            N/A     49  46  88 CALM      29.95S
DESCANSO N       N/A     42  37  80 CALM      29.85S
MT. LAGUNA OBS   N/A     49  26  40 CALM      29.64
CAMPO            N/A     40  37  89 NE6       29.94S

$$

ORANGE COUNTY AND THE LOS ANGELES BASIN

CITY           SKY/WX    TMP DP  RH WIND       PRES   REMARKS
JOHN WAYNE AP  CLEAR     58  45  62 CALM      29.94R
LAGUNA BEACH     N/A     49  44  84 NW2       29.91S
LAKE FOREST FR   N/A     53  42  65 CALM      29.84R
SANTA ANA        N/A     53  49  85 CALM      29.89R
LOS ALAMITOS   FAIR      53  51  92 CALM      29.94R
FULLERTON      CLEAR     55  46  71 E3        29.93R
LONG BEACH     CLEAR     56  49  77 CALM      29.94R
L.A. AP        PTCLDY    56  48  74 E3        29.94S
L.A. DOWNTOWN  CLEAR     55  49  80 CALM      29.93S

$$

THE INLAND EMPIRE

CITY           SKY/WX    TMP DP  RH WIND       PRES   REMARKS
CORONA         CLEAR     56  45  66 E6          N/A
CHINO          CLEAR     48  43  82 N5        29.95S
ONTARIO        CLEAR     56  42  59 CALM      29.94S
RIVERSIDE AP   CLEAR     53  42  66 CALM      29.94F
RIV CYN CREST    N/A     53  48  82 S2        29.92F
MORENO VALLEY    N/A     52  44  75 CALM      28.06F
MARCH ARB      CLEAR     47  40  77 S2        29.95F
HORSETHIEF CYN   N/A     51  39  63 S3        29.95F
PERRIS           N/A     52  47  84 CALM        N/A
MENIFEE          N/A     51  48  90 CALM      30.01F
HEMET EAST       N/A     52  37  55 CALM      29.95S
FRENCH VALLEY  NOT AVBL
TEMECULA         N/A     51  48  89 CALM      29.94S

$$

SAN BERNARDINO AND RIVERSIDE COUNTY MOUNTAINS

CITY           SKY/WX    TMP DP  RH WIND       PRES   REMARKS
BIG BEAR AP    CLEAR     27  14  59 CALM      30.10S
BIG BEAR SHEA    N/A     23   8  50 CALM      30.08R
ANGELUS OAKS     N/A     42  22  44 MISG      29.88S
PINE COVE        N/A     45  19  35 CALM      29.94S

$$

SOUTHERN DESERT INCLUDING THE COACHELLA VALLEY

CITY           SKY/WX    TMP DP  RH WIND       PRES   REMARKS
PALM SPRINGS   CLEAR     64  44  48 VRB3      29.88F
THOUSAND PALMS   N/A     68  39  34 N9        29.84S
PALM DESERT      N/A     62  47  58 CALM      32.04F
THERMAL        CLEAR     66  43  43 NW9       29.84S
BLYTHE         CLEAR     61  14  16 W9        29.86S
IMPERIAL AP    CLEAR     59  41  51 SW5       29.84R
EL CENTRO NAS  CLEAR     60  41  49 SW7       29.85R
YUMA AZ        CLEAR     60  34  37 CALM      29.85S

$$

UPPER DESERT

CITY           SKY/WX    TMP DP  RH WIND       PRES   REMARKS
VICTORVILLE AP   N/A     45  21  39 S6        30.01R
HESPERIA         N/A     44  28  53 W5        30.10F
APPLE VALLEY     N/A     40  26  58 CALM      30.10S
GRAY BUTTE AP  NOT AVBL
PALMDALE       CLEAR     44  21  40 S7        30.01R
LANCASTER      CLEAR     44  27  51 CALM      30.00S
EDWARDS AFB    CLEAR     44  27  50 SW5       29.97S
DAGGETT        CLEAR     51  25  36 W12       29.97S
29 PALMS N     CLEAR     55  24  30 W13       30.02S
NEEDLES        CLEAR     61  10  13 S3        29.89S

$$

REGIONAL REPORTS

CITY           SKY/WX    TMP DP  RH WIND       PRES   REMARKS
SANTA BARBARA  CLEAR     49  42  77 CALM      29.92R
SANDBERG       CLEAR     45  27  49 N22G30    30.04S
MT. WILSON       N/A     46  18  31 MISG        N/A
LAS VEGAS NV   MOCLDY    59  15  18 S9        29.90F
PHOENIX AZ     CLEAR     64  26  23 E8        29.88S
TIJUANA          N/A    N/A N/A N/A MISG        N/A
ENSENADA NW      N/A     56  32  40 NE1       29.94R

$$

OFFSHORE ISLANDS

CITY           SKY/WX    TMP DP  RH WIND       PRES   REMARKS
CATALINA ARPT  CLEAR     61  26  26 CALM      29.95S
SAN NICOLAS IS CLEAR    N/A N/A N/A W8        29.93R

$$

MARINE AND OFFSHORE BUOY REPORTS

STATION/POSITION SKY/WX   TEMP    WIND        PRES    SWELL
                          AIR SEA DIR/SP/G            HT/PER/DIR
                          (F)     (DEG/KT/KT) (MB)    (FT/S/D)
S CLEMENTE BASIN           59 62  240/  4/  4 1013.5F   8/290/ 9
SAN NICOLAS IS.               57                N/A     5/310/13
SO. S. ROSA ISLA           55 56  320/ 19/ 23 1013.5R   7/12
W. S. BARBARA CH           54 54  330/ 21/ 23 1013.4R   7/300/11
S. MONICA BASIN            60 60   70/  4/  4 1013.2R   5/260/ 8
S PEDRO CHANNEL               62                N/A     2/270/12
DANA POINT                    62                N/A     2/280/13
CMP PENDLETON NS              63                N/A     2/210/14
OCEANSIDE OFFSHR              62                N/A     2/270/11
TORREY PINES OTR              63                N/A     3/270/13
LA JOLLA 1                 58 62  100/  7/  8 1013.8F
MISSION BAY BUOY              63                N/A     3/290/13
SAN DIEGO BAY                 66              1014.2F
POINT LOMA SOUTH              64                N/A     3/260/13

$$




USA.gov is the U.S. government's official web portal to all federal, state and local government web resources and services.